Regional Weather Roundup
Issued by NWS Tiyan, Guam

Home | Current Version | Previous Version | Text Only | Print | Product List | Glossary On
Versions: 1 2 3 4 5 6 7 8 9 10 11 12 13 14 15 16 17 18 19 20 21 22 23 24 25 26 27 28
000
ASGM40 PGUM 222010
RWRGUM
WEATHER ROUNDUP FOR THE MARIANAS
NATIONAL WEATHER SERVICE TIYAN GU
600 AM CHST WED MAY 23 2018

GUZ001>004-222100-
MARIANA ISLANDS-

CITY           SKY/WX    TMP DP  RH WIND       PRES   REMARKS
GUAM AIRPORT   CLEAR     81  81 100 E3        29.86R HX  91
ANDERSEN AFB   PTCLDY    79  79 100 SE7       29.86S
ROTA AIRPORT   NOT AVBL
TINIAN AP      PTCLDY    79  75  89 E5        29.83
SAIPAN AP      MOCLDY    81  79  94 E5        29.84S

$$





USA.gov is the U.S. government's official web portal to all federal, state and local government web resources and services.